Regional Weather Roundup
Issued by NWS Newport/Morehead, NC

Current Version | Previous Version | Text Only | Print | Product List | Glossary On
Versions: 1 2 3 4 5 6 7 8 9 10 11 12 13 14 15 16 17 18 19 20 21 22 23 24 25 26 27 28 29 30 31 32 33 34 35 36 37 38 39 40 41 42 43 44 45 46 47 48 49 50
000
ASUS42 KMHX 020413
RWRMHX
WEATHER ROUNDUP FOR EASTERN NORTH CAROLINA
NATIONAL WEATHER SERVICE NEWPORT/MOREHEAD CITY NC
1200 AM EDT MON MAY 02 2016

NOTE: "FAIR" INDICATES FEW OR NO CLOUDS BELOW 12,000 FEET
WITH NO SIGNIFICANT WEATHER AND/OR OBSTRUCTIONS TO VISIBILITY

NCZ015>017-031-032-045>047-102-103-020500-
NORTH COAST

CITY           SKY/WX    TMP DP  RH WIND       PRES   REMARKS
EDENTON        CLOUDY    67  67 100 S5        30.04S
ELIZABETH CITY CLOUDY    66  64  93 CALM      30.04S
KITTY HAWK     CLOUDY    68  64  88 S3        30.04S
MANTEO         NOT AVBL

$$

NCZ045>047-081-094-103-104-020500-
CENTRAL COAST

CITY           SKY/WX    TMP DP  RH WIND       PRES   REMARKS
FRISCO         MOCLDY    68  66  93 SW5       30.06S
SWANQUARTER    NOT AVBL

$$

NCZ095-097-098-100-101-020500-
SOUTHERN COAST

CITY           SKY/WX    TMP DP  RH WIND       PRES   REMARKS
BEAUFORT       CLOUDY    69  67  93 SW6       30.05R
CEDAR ISLAND   NOT AVBL
JACKSONVILLE   MOCLDY    70  67  90 S7        30.03S
PINEY ISLAND   NOT AVBL
WILMINGTON     CLOUDY    68  65  90 S3        30.03F


$$

NCZ011>013-027>030-043-044-078>080-089-090>093-098-020500-
COASTAL PLAIN

CITY           SKY/WX    TMP DP  RH WIND       PRES   REMARKS
AHOSKIE        CLOUDY    64  63  97 CALM      30.01F
CLINTON        CLOUDY    67  67 100 CALM      30.03F FOG
ELIZABETHTOWN  CLOUDY    68  67  98 CALM      30.04R
GOLDSBORO      CLOUDY    68  68 100 S3        30.01S
GREENVILLE     MOCLDY    68  68 100 S5        30.04F
HAVELOCK       CLOUDY    71  67  87 S7        30.05S
KENANSVILLE    CLOUDY    67  66  97 CALM      30.05R FOG
KINSTON        CLOUDY    68  67  96 S5        30.04S
NEW BERN       CLOUDY    66  64  93 CALM      30.05F
RICHLANDS      FOG       64  64 100 CALM      30.05R VSB 1/2
ROCKY MOUNT    CLOUDY    66  65  96 S6        30.01F
WASHINGTON     MOCLDY    66  64  95 S3        30.04S
WHITEVILLE     MOCLDY    67  65  91 SW3       30.03S

$$

AMZ130-135-150-152-154-156-158-170-250-252-270-ANZ085-086-088-633-658-670-020500-
MARINE OBSERVATIONS

STATION/POSITION TIME  TEMP    WIND        PRES    WAVE   SWELL
                       AIR SEA DIR/SP/G            HT/PER HT/PER
                 (UTC) (F)     (DEG/KT/KT) (MB)    (FT/S) (FT/S)
CHESAPEAKE LIGHT 0300   62     200/ 12/ 13 1017.5
64 E VA BEACH    0350   58 53  190/ 10/ 12 1017.1    4/10   3/10
DUCK             0300   68 67              1016.9
2 E DUCK         0311      58                N/A     3/ 8
OREGON INLET     0300   69 66              1017.4
13E OREGON INLT  0400      59                N/A     5/10   5/10
HATTERAS CG      0300   70 67              1017.5
DIAMOND BUOY     0350   74 73  190/ 16/ 19 1017.6    5/ 9   3/ 9
CAPE LOOKOUT     0300   69     190/  8/  9 1016.9
BEAUFORT LAB     0300   70 68              1016.4
30 SE NEW RVR IN 0325      70                N/A     4/ 9
27 SE WRIGHTSVLE 0308   73 71  200/ 14/ 17 1016.9
5 SE WRIGHTSVLE  0308   70 68  230/ 10/ 14 1018.1
225 S CAPE HAT   0350   73 74  140/ 14/ 16 1020.3    4/ 9   3/ 9
41 SE CHARLESTON 0350   75 73  170/ 12/ 14 1017.2    3/11   2/11

$$




USA.gov is the U.S. government's official web portal to all federal, state and local government web resources and services.